| time (UTC) | temp F | wind direction | speed MPH | gust MPH | rain 1hr in | rain 24hr in | rain mn in | humidity % | barometer mb |
| 20260506030521 | 48 | 41 | 2.0 | 7.0 | 0.15 | 1.02 | 1.02 | 89 | 1008.3 |
| 20260506030022 | 48 | 1 | 2.0 | 6.0 | 0.14 | 1.01 | 1.01 | 89 | 1008.2 |
| 20260506025521 | 48 | 326 | 3.0 | 6.0 | 0.15 | 1.00 | 1.00 | 89 | 1008.2 |
| 20260506025019 | 48 | 330 | 3.0 | 7.0 | 0.15 | 0.99 | 0.99 | 89 | 1008.3 |
| 20260506024536 | 48 | 4 | 3.0 | 7.0 | 0.14 | 0.97 | 0.97 | 89 | 1008.1 |
| 20260506024118 | 48 | 309 | 1.0 | 7.0 | 0.14 | 0.96 | 0.96 | 89 | 1008.0 |
| 20260506023520 | 48 | 15 | 4.0 | 7.0 | 0.13 | 0.94 | 0.94 | 89 | 1007.7 |
| 20260506023016 | 48 | 335 | 2.0 | 5.0 | 0.14 | 0.93 | 0.93 | 89 | 1007.7 |
| 20260506022518 | 48 | 37 | 2.0 | 5.0 | 0.13 | 0.92 | 0.92 | 89 | 1007.8 |
| 20260506022015 | 48 | 326 | 2.0 | 7.0 | 0.12 | 0.91 | 0.91 | 89 | 1007.7 |
| 20260506021515 | 48 | 339 | 3.0 | 7.0 | 0.10 | 0.89 | 0.89 | 89 | 1007.6 |
| 20260506021017 | 48 | 321 | 2.0 | 6.0 | 0.09 | 0.88 | 0.88 | 89 | 1007.6 |
| 20260506020514 | 48 | 1 | 3.0 | 7.0 | 0.09 | 0.87 | 0.87 | 89 | 1007.5 |
| 20260506020014 | 48 | 6 | 3.0 | 7.0 | 0.09 | 0.87 | 0.87 | 89 | 1007.4 |
| 20260506015515 | 48 | 23 | 3.0 | 6.0 | 0.07 | 0.85 | 0.85 | 89 | 1007.4 |
| 20260506015016 | 48 | 4 | 3.0 | 5.0 | 0.07 | 0.84 | 0.84 | 89 | 1007.5 |
| 20260506014514 | 48 | 356 | 2.0 | 6.0 | 0.07 | 0.83 | 0.83 | 89 | 1007.6 |
| 20260506014017 | 48 | 335 | 2.0 | 6.0 | 0.07 | 0.82 | 0.82 | 89 | 1007.6 |
| 20260506013514 | 48 | 27 | 2.0 | 5.0 | 0.09 | 0.81 | 0.81 | 89 | 1007.6 |
| 20260506013015 | 48 | 3 | 3.0 | 5.0 | 0.08 | 0.79 | 0.79 | 89 | 1007.5 |
| 20260506012514 | 48 | 356 | 2.0 | 5.0 | 0.10 | 0.79 | 0.79 | 89 | 1007.4 |
| 20260506012016 | 48 | 4 | 2.0 | 5.0 | 0.10 | 0.79 | 0.79 | 89 | 1007.5 |
| 20260506011513 | 48 | 41 | 1.0 | 4.0 | 0.11 | 0.79 | 0.79 | 89 | 1007.3 |
| 20260506011015 | 48 | 15 | 2.0 | 8.0 | 0.11 | 0.79 | 0.79 | 89 | 1007.3 |
| 20260506010512 | 48 | 326 | 2.0 | 8.0 | 0.10 | 0.78 | 0.78 | 89 | 1007.2 |
| 20260506010012 | 48 | 356 | 2.0 | 6.0 | 0.10 | 0.78 | 0.78 | 89 | 1007.2 |
| 20260506005511 | 48 | 84 | 1.0 | 5.0 | 0.10 | 0.78 | 0.78 | 89 | 1007.1 |
| 20260506005112 | 48 | 27 | 3.0 | 6.0 | 0.09 | 0.77 | 0.77 | 89 | 1007.1 |
| 20260506004510 | 48 | 337 | 3.0 | 6.0 | 0.08 | 0.76 | 0.76 | 89 | 1007.3 |
| 20260506004010 | 48 | 11 | 2.0 | 5.0 | 0.07 | 0.75 | 0.75 | 89 | 1007.1 |
| 20260506003510 | 48 | 16 | 2.0 | 5.0 | 0.04 | 0.72 | 0.72 | 89 | 1007.0 |
| 20260506003010 | 48 | 18 | 2.0 | 4.0 | 0.04 | 0.71 | 0.71 | 89 | 1006.8 |
| 20260506002511 | 48 | 34 | 1.0 | 4.0 | 0.02 | 0.69 | 0.69 | 88 | 1006.8 |
| 20260506002009 | 48 | 8 | 2.0 | 4.0 | 0.02 | 0.69 | 0.69 | 88 | 1006.8 |
| 20260506001509 | 48 | 48 | 1.0 | 4.0 | 0.02 | 0.68 | 0.68 | 88 | 1006.9 |
| 20260506001009 | 48 | 41 | 1.0 | 5.0 | 0.03 | 0.68 | 0.68 | 88 | 1006.9 |
| 20260506000508 | 48 | 15 | 2.0 | 5.0 | 0.04 | 0.68 | 0.68 | 88 | 1006.9 |
| 20260506000008 | 48 | 18 | 1.0 | 5.0 | 0.05 | 0.68 | 0.68 | 88 | 1006.8 |
| 20260505235506 | 48 | 41 | 2.0 | 5.0 | 0.07 | 0.68 | 0.68 | 88 | 1006.7 |
| 20260505235006 | 48 | 348 | 1.0 | 5.0 | 0.11 | 0.68 | 0.68 | 88 | 1006.7 |
| 20260505234506 | 48 | 335 | 2.0 | 7.0 | 0.13 | 0.68 | 0.68 | 88 | 1006.7 |
| 20260505234006 | 48 | 44 | 3.0 | 8.0 | 0.13 | 0.68 | 0.68 | 88 | 1006.7 |
| 20260505233506 | 48 | 6 | 4.0 | 8.0 | 0.13 | 0.68 | 0.68 | 88 | 1006.8 |
| 20260505233106 | 48 | 1 | 4.0 | 8.0 | 0.12 | 0.67 | 0.67 | 88 | 1007.1 |
| 20260505232503 | 48 | 325 | 4.0 | 11.0 | 0.14 | 0.67 | 0.67 | 88 | 1007.1 |
| 20260505232003 | 48 | 10 | 6.0 | 11.0 | 0.15 | 0.67 | 0.67 | 88 | 1007.1 |
| 20260505231502 | 48 | 1 | 4.0 | 9.0 | 0.14 | 0.66 | 0.66 | 88 | 1007.2 |
| 20260505231003 | 48 | 356 | 4.0 | 8.0 | 0.14 | 0.65 | 0.65 | 87 | 1006.9 |
| 20260505230603 | 48 | 335 | 2.0 | 8.0 | 0.16 | 0.64 | 0.64 | 87 | 1007.1 |
| 20260505230059 | 48 | 359 | 3.0 | 7.0 | 0.16 | 0.63 | 0.63 | 87 | 1007.2 |
| 20260505225559 | 49 | 337 | 4.0 | 8.0 | 0.15 | 0.62 | 0.61 | 87 | 1007.3 |
| 20260505225057 | 49 | 291 | 4.0 | 8.0 | 0.13 | 0.59 | 0.57 | 87 | 1007.6 |
| 20260505224557 | 49 | 6 | 4.0 | 12.0 | 0.11 | 0.56 | 0.55 | 87 | 1006.9 |
| 20260505224056 | 49 | 336 | 5.0 | 13.0 | 0.12 | 0.56 | 0.55 | 87 | 1006.9 |
| 20260505223554 | 49 | 1 | 3.0 | 13.0 | 0.14 | 0.56 | 0.55 | 87 | 1006.9 |
| 20260505223103 | 50 | 10 | 7.0 | 12.0 | 0.14 | 0.55 | 0.54 | 86 | 1006.9 |
| 20260505222551 | 50 | 23 | 5.0 | 12.0 | 0.14 | 0.54 | 0.53 | 87 | 1007.0 |
| 20260505222051 | 50 | 20 | 4.0 | 9.0 | 0.14 | 0.53 | 0.52 | 86 | 1006.9 |
| 20260505221557 | 51 | 74 | 3.0 | 10.0 | 0.14 | 0.53 | 0.52 | 86 | 1006.8 |
| 20260505221049 | 51 | 333 | 5.0 | 10.0 | 0.16 | 0.52 | 0.51 | 86 | 1006.8 |
| 20260505220547 | 51 | 356 | 5.0 | 10.0 | 0.19 | 0.49 | 0.48 | 86 | 1006.9 |
| 20260505220051 | 51 | 339 | 3.0 | 9.0 | 0.26 | 0.48 | 0.47 | 86 | 1006.8 |
| 20260505215546 | 51 | 34 | 3.0 | 9.0 | 0.26 | 0.47 | 0.46 | 86 | 1006.7 |
| 20260505215046 | 51 | 344 | 3.0 | 7.0 | 0.31 | 0.46 | 0.45 | 86 | 1006.8 |
| 20260505214603 | 51 | 23 | 3.0 | 7.0 | 0.33 | 0.45 | 0.44 | 85 | 1006.6 |
| 20260505214044 | 52 | 345 | 2.0 | 12.0 | 0.32 | 0.44 | 0.43 | 85 | 1006.8 |
| 20260505213544 | 52 | 356 | 5.0 | 13.0 | 0.30 | 0.41 | 0.40 | 85 | 1006.6 |
| 20260505213041 | 52 | 3 | 3.0 | 15.0 | 0.31 | 0.41 | 0.40 | 85 | 1006.6 |
| 20260505212540 | 53 | 4 | 5.0 | 15.0 | 0.31 | 0.40 | 0.39 | 84 | 1006.6 |
| 20260505212039 | 54 | 20 | 7.0 | 14.0 | 0.31 | 0.39 | 0.38 | 84 | 1006.7 |
| 20260505211537 | 56 | 343 | 8.0 | 14.0 | 0.32 | 0.39 | 0.38 | 84 | 1006.6 |
| 20260505211036 | 57 | 356 | 2.0 | 15.0 | 0.28 | 0.35 | 0.34 | 86 | 1006.6 |
| 20260505210534 | 57 | 264 | 3.0 | 15.0 | 0.24 | 0.30 | 0.28 | 85 | 1006.4 |
| 20260505210036 | 57 | 226 | 3.0 | 9.0 | 0.16 | 0.22 | 0.21 | 85 | 1006.3 |
| 20260505205534 | 57 | 240 | 2.0 | 9.0 | 0.14 | 0.20 | 0.19 | 85 | 1006.2 |
| 20260505205033 | 57 | 250 | 3.0 | 9.0 | 0.10 | 0.15 | 0.14 | 85 | 1006.5 |
| 20260505204535 | 57 | 248 | 0.0 | 6.0 | 0.08 | 0.12 | 0.11 | 84 | 1006.2 |
| 20260505204032 | 57 | 41 | 1.0 | 6.0 | 0.09 | 0.12 | 0.11 | 84 | 1006.3 |
| 20260505203532 | 57 | 326 | 0.0 | 5.0 | 0.09 | 0.11 | 0.10 | 84 | 1006.3 |
| 20260505203033 | 58 | 316 | 1.0 | 5.0 | 0.07 | 0.09 | 0.08 | 83 | 1006.4 |
| 20260505202530 | 58 | 214 | 0.0 | 7.0 | 0.07 | 0.09 | 0.08 | 83 | 1006.2 |
| 20260505202102 | 58 | 41 | 2.0 | 7.0 | 0.06 | 0.08 | 0.07 | 83 | 1006.3 |
| 20260505201559 | 58 | 264 | 1.0 | 6.0 | 0.05 | 0.07 | 0.06 | 82 | 1006.4 |
| 20260505201058 | 58 | 231 | 2.0 | 6.0 | 0.04 | 0.06 | 0.05 | 82 | 1006.3 |
| 20260505200557 | 58 | 267 | 3.0 | 13.0 | 0.05 | 0.06 | 0.05 | 81 | 1006.3 |
| 20260505200105 | 59 | 218 | 1.0 | 13.0 | 0.05 | 0.06 | 0.05 | 81 | 1006.3 |
| 20260505195553 | 59 | 119 | 1.0 | 4.0 | 0.05 | 0.06 | 0.05 | 80 | 1006.4 |
| 20260505195052 | 59 | 326 | 1.0 | 6.0 | 0.04 | 0.05 | 0.04 | 79 | 1006.4 |
| 20260505194554 | 60 | 303 | 1.0 | 7.0 | 0.03 | 0.04 | 0.03 | 78 | 1006.4 |
| 20260505194051 | 60 | 239 | 3.0 | 8.0 | 0.02 | 0.03 | 0.02 | 77 | 1006.4 |
| 20260505193550 | 61 | 173 | 2.0 | 8.0 | 0.01 | 0.02 | 0.01 | 76 | 1006.4 |
| 20260505193051 | 61 | 309 | 1.0 | 10.0 | 0.01 | 0.02 | 0.01 | 76 | 1006.5 |
| 20260505192549 | 61 | 254 | 4.0 | 10.0 | 0.01 | 0.02 | 0.01 | 75 | 1006.3 |
| 20260505192051 | 62 | 229 | 1.0 | 10.0 | 0.01 | 0.02 | 0.01 | 75 | 1006.3 |
| 20260505191548 | 62 | 233 | 2.0 | 11.0 | 0.01 | 0.02 | 0.01 | 74 | 1006.4 |
| 20260505191047 | 62 | 221 | 4.0 | 13.0 | 0.01 | 0.02 | 0.01 | 74 | 1006.3 |
| 20260505190545 | 62 | 229 | 5.0 | 13.0 | 0.00 | 0.01 | 0.00 | 74 | 1006.4 |
| 20260505190046 | 62 | 245 | 6.0 | 14.0 | 0.00 | 0.01 | 0.00 | 73 | 1006.4 |
| 20260505185544 | 62 | 250 | 5.0 | 14.0 | 0.00 | 0.01 | 0.00 | 73 | 1006.4 |
| 20260505185044 | 63 | 232 | 4.0 | 16.0 | 0.00 | 0.01 | 0.00 | 73 | 1006.4 |
| 20260505184544 | 63 | 173 | 4.0 | 18.0 | 0.00 | 0.01 | 0.00 | 72 | 1006.4 |
| 20260505184044 | 63 | 226 | 9.0 | 21.0 | 0.00 | 0.01 | 0.00 | 72 | 1006.4 |
| 20260505183543 | 63 | 214 | 9.0 | 21.0 | 0.00 | 0.01 | 0.00 | 72 | 1006.5 |
| 20260505183054 | 63 | 190 | 6.0 | 19.0 | 0.00 | 0.01 | 0.00 | 71 | 1006.5 |
| 20260505182544 | 63 | 259 | 7.0 | 19.0 | 0.00 | 0.01 | 0.00 | 72 | 1006.5 |
| 20260505182042 | 63 | 208 | 6.0 | 19.0 | 0.00 | 0.01 | 0.00 | 71 | 1006.5 |
| 20260505181543 | 63 | 235 | 7.0 | 19.0 | 0.00 | 0.01 | 0.00 | 71 | 1006.5 |
| 20260505181044 | 63 | 323 | 3.0 | 18.0 | 0.00 | 0.01 | 0.00 | 71 | 1006.4 |
| 20260505180540 | 63 | 248 | 9.0 | 18.0 | 0.00 | 0.01 | 0.00 | 71 | 1006.4 |
| 20260505180043 | 64 | 245 | 4.0 | 14.0 | 0.00 | 0.01 | 0.00 | 71 | 1006.4 |
| 20260505175539 | 64 | 241 | 3.0 | 17.0 | 0.00 | 0.01 | 0.00 | 71 | 1006.3 |
| 20260505175038 | 64 | 216 | 9.0 | 18.0 | 0.00 | 0.01 | 0.00 | 71 | 1006.3 |
| 20260505174545 | 64 | 326 | 6.0 | 22.0 | 0.00 | 0.01 | 0.00 | 70 | 1006.3 |
| 20260505174041 | 64 | 264 | 6.0 | 23.0 | 0.00 | 0.01 | 0.00 | 70 | 1006.2 |
| 20260505173538 | 64 | 267 | 9.0 | 23.0 | 0.00 | 0.01 | 0.00 | 70 | 1006.2 |
| 20260505173037 | 64 | 281 | 4.0 | 25.0 | 0.00 | 0.01 | 0.00 | 69 | 1006.1 |
| 20260505172540 | 64 | 255 | 12.0 | 25.0 | 0.00 | 0.01 | 0.00 | 70 | 1006.2 |
| 20260505172036 | 64 | 196 | 9.0 | 21.0 | 0.00 | 0.01 | 0.00 | 69 | 1006.2 |
| 20260505171538 | 64 | 317 | 7.0 | 21.0 | 0.00 | 0.01 | 0.00 | 69 | 1006.1 |
| 20260505171035 | 64 | 211 | 7.0 | 27.0 | 0.00 | 0.01 | 0.00 | 68 | 1006.2 |
| 20260505170534 | 64 | 227 | 11.0 | 27.0 | 0.00 | 0.01 | 0.00 | 68 | 1006.2 |
| 20260505170034 | 64 | 243 | 7.0 | 24.0 | 0.00 | 0.01 | 0.00 | 68 | 1006.1 |
| 20260505165532 | 65 | 259 | 4.0 | 24.0 | 0.00 | 0.01 | 0.00 | 67 | 1006.2 |
| 20260505165032 | 65 | 253 | 6.0 | 18.0 | 0.00 | 0.01 | 0.00 | 67 | 1006.1 |
| 20260505164535 | 65 | 236 | 9.0 | 22.0 | 0.00 | 0.01 | 0.00 | 67 | 1006.1 |
| 20260505164032 | 65 | 156 | 13.0 | 27.0 | 0.00 | 0.01 | 0.00 | 66 | 1006.0 |
| 20260505163530 | 66 | 259 | 13.0 | 27.0 | 0.00 | 0.01 | 0.00 | 66 | 1006.1 |
| 20260505163032 | 66 | 257 | 14.0 | 27.0 | 0.00 | 0.01 | 0.00 | 66 | 1006.1 |
| 20260505162529 | 67 | 250 | 8.0 | 25.0 | 0.00 | 0.01 | 0.00 | 65 | 1006.1 |
| 20260505162028 | 67 | 245 | 12.0 | 25.0 | 0.00 | 0.01 | 0.00 | 65 | 1005.9 |
| 20260505161528 | 67 | 230 | 12.0 | 25.0 | 0.00 | 0.01 | 0.00 | 64 | 1005.9 |
| 20260505161027 | 68 | 254 | 11.0 | 25.0 | 0.00 | 0.01 | 0.00 | 64 | 1005.9 |
| 20260505160527 | 68 | 248 | 10.0 | 25.0 | 0.00 | 0.01 | 0.00 | 63 | 1005.8 |
| 20260505153023 | 68 | 154 | 12.0 | 28.0 | 0.00 | 0.01 | 0.00 | 63 | 1005.0 |
| 20260505152519 | 68 | 236 | 12.0 | 28.0 | 0.00 | 0.01 | 0.00 | 64 | 1004.8 |
| 20260505152020 | 68 | 227 | 14.0 | 26.0 | 0.00 | 0.01 | 0.00 | 63 | 1004.7 |
| 20260505151517 | 67 | 210 | 13.0 | 26.0 | 0.00 | 0.01 | 0.00 | 64 | 1004.8 |
| 20260505151016 | 67 | 213 | 12.0 | 29.0 | 0.00 | 0.01 | 0.00 | 67 | 1005.0 |
| 20260505150520 | 67 | 207 | 12.0 | 29.0 | 0.00 | 0.01 | 0.00 | 66 | 1005.0 |
| 20260505140504 | 65 | 207 | 18.0 | 33.0 | 0.00 | 0.01 | 0.00 | 69 | 1004.6 |
| 20260505124654 | 60 | 215 | 8.0 | 25.0 | 0.00 | 0.01 | 0.00 | 74 | 1005.0 |
| 20260505124054 | 60 | 230 | 13.0 | 25.0 | 0.00 | 0.01 | 0.00 | 73 | 1005.0 |
| 20260505123551 | 60 | 247 | 11.0 | 22.0 | 0.00 | 0.01 | 0.00 | 73 | 1004.8 |
| 20260505123054 | 60 | 199 | 11.0 | 21.0 | 0.00 | 0.01 | 0.00 | 73 | 1004.7 |
| 20260505122551 | 60 | 186 | 8.0 | 23.0 | 0.00 | 0.01 | 0.00 | 73 | 1004.6 |
| 20260505122049 | 60 | 225 | 12.0 | 23.0 | 0.00 | 0.01 | 0.00 | 73 | 1004.6 |
| 20260505121548 | 60 | 230 | 13.0 | 22.0 | 0.00 | 0.01 | 0.00 | 73 | 1004.4 |
| 20260505121047 | 60 | 193 | 9.0 | 20.0 | 0.00 | 0.01 | 0.00 | 73 | 1004.1 |
| 20260505120546 | 60 | 245 | 10.0 | 23.0 | 0.00 | 0.01 | 0.00 | 73 | 1004.1 |
| 20260505120050 | 60 | 203 | 11.0 | 23.0 | 0.00 | 0.01 | 0.00 | 73 | 1004.0 |
| 20260505115544 | 60 | 180 | 7.0 | 21.0 | 0.00 | 0.01 | 0.00 | 73 | 1003.8 |
| 20260505115043 | 60 | 184 | 12.0 | 21.0 | 0.00 | 0.01 | 0.00 | 73 | 1003.7 |
| 20260505114551 | 60 | 206 | 9.0 | 16.0 | 0.00 | 0.01 | 0.00 | 73 | 1003.7 |
| 20260505114042 | 60 | 112 | 5.0 | 15.0 | 0.00 | 0.01 | 0.00 | 73 | 1003.6 |
| 20260505113544 | 60 | 204 | 9.0 | 25.0 | 0.00 | 0.01 | 0.00 | 73 | 1003.7 |
| 20260505113039 | 60 | 247 | 11.0 | 25.0 | 0.00 | 0.01 | 0.00 | 72 | 1003.6 |
| 20260505112538 | 61 | 185 | 13.0 | 24.0 | 0.00 | 0.01 | 0.00 | 72 | 1003.6 |
| 20260505112037 | 61 | 215 | 12.0 | 24.0 | 0.00 | 0.01 | 0.00 | 71 | 1003.5 |
| 20260505111536 | 62 | 246 | 10.0 | 35.0 | 0.00 | 0.01 | 0.00 | 70 | 1003.6 |
| 20260505111037 | 62 | 214 | 18.0 | 35.0 | 0.00 | 0.01 | 0.00 | 68 | 1003.7 |
| 20260505110534 | 62 | 231 | 16.0 | 31.0 | 0.00 | 0.01 | 0.00 | 67 | 1003.6 |
| 20260505102025 | 63 | 218 | 8.0 | 26.0 | 0.00 | 0.01 | 0.00 | 68 | 1003.3 |
| 20260505101539 | 63 | 199 | 13.0 | 26.0 | 0.00 | 0.01 | 0.00 | 68 | 1003.3 |
| 20260505101024 | 63 | 201 | 11.0 | 27.0 | 0.00 | 0.01 | 0.00 | 67 | 1003.0 |
| 20260505100525 | 63 | 193 | 14.0 | 27.0 | 0.00 | 0.01 | 0.00 | 67 | 1003.0 |
| 20260505100023 | 64 | 229 | 10.0 | 25.0 | 0.00 | 0.01 | 0.00 | 67 | 1002.8 |
| 20260505095623 | 64 | 186 | 13.0 | 29.0 | 0.00 | 0.01 | 0.00 | 67 | 1002.9 |
| 20260505095021 | 64 | 221 | 13.0 | 32.0 | 0.00 | 0.01 | 0.00 | 66 | 1002.8 |
| 20260505094532 | 64 | 228 | 13.0 | 29.0 | 0.00 | 0.01 | 0.00 | 66 | 1002.6 |
| 20260505094020 | 64 | 227 | 16.0 | 29.0 | 0.00 | 0.01 | 0.00 | 66 | 1002.5 |
| 20260505093520 | 64 | 230 | 14.0 | 31.0 | 0.00 | 0.01 | 0.00 | 66 | 1002.5 |
| 20260505093020 | 64 | 194 | 17.0 | 31.0 | 0.00 | 0.01 | 0.00 | 65 | 1002.4 |
| 20260505092522 | 64 | 226 | 13.0 | 28.0 | 0.00 | 0.01 | 0.00 | 65 | 1002.3 |
| 20260505092018 | 64 | 228 | 15.0 | 26.0 | 0.00 | 0.01 | 0.00 | 65 | 1002.3 |
| 20260505091517 | 65 | 220 | 12.0 | 29.0 | 0.00 | 0.01 | 0.00 | 65 | 1002.2 |
| 20260505091018 | 65 | 163 | 14.0 | 29.0 | 0.00 | 0.01 | 0.00 | 65 | 1002.2 |
| 20260505090518 | 65 | 199 | 14.0 | 26.0 | 0.00 | 0.01 | 0.00 | 65 | 1002.1 |
| 20260505090021 | 65 | 210 | 11.0 | 33.0 | 0.00 | 0.01 | 0.00 | 65 | 1002.2 |
| 20260505085519 | 65 | 259 | 17.0 | 33.0 | 0.00 | 0.01 | 0.00 | 64 | 1002.2 |
| 20260505085015 | 65 | 205 | 15.0 | 32.0 | 0.00 | 0.01 | 0.00 | 64 | 1002.2 |
| 20260505084515 | 65 | 247 | 17.0 | 30.0 | 0.00 | 0.01 | 0.00 | 64 | 1002.0 |
| 20260505084016 | 65 | 215 | 11.0 | 30.0 | 0.00 | 0.01 | 0.00 | 64 | 1002.0 |
| 20260505083513 | 65 | 232 | 16.0 | 30.0 | 0.00 | 0.01 | 0.00 | 65 | 1002.1 |
| 20260505083020 | 65 | 205 | 12.0 | 35.0 | 0.00 | 0.01 | 0.00 | 65 | 1002.1 |
| 20260505082516 | 65 | 209 | 16.0 | 36.0 | 0.00 | 0.01 | 0.00 | 65 | 1002.2 |
| 20260505082017 | 65 | 258 | 14.0 | 36.0 | 0.00 | 0.01 | 0.00 | 65 | 1002.2 |
| 20260505081612 | 65 | 204 | 16.0 | 32.0 | 0.00 | 0.01 | 0.00 | 65 | 1002.3 |
| 20260505081019 | 65 | 216 | 13.0 | 32.0 | 0.00 | 0.01 | 0.00 | 66 | 1002.2 |
| 20260505080510 | 65 | 224 | 16.0 | 32.0 | 0.00 | 0.01 | 0.00 | 66 | 1002.0 |
| 20260505080013 | 65 | 217 | 11.0 | 32.0 | 0.00 | 0.01 | 0.00 | 66 | 1001.9 |
| 20260505075513 | 65 | 218 | 16.0 | 34.0 | 0.00 | 0.01 | 0.00 | 66 | 1001.9 |
| 20260505075016 | 65 | 232 | 18.0 | 36.0 | 0.00 | 0.01 | 0.00 | 66 | 1002.0 |
| 20260505074508 | 65 | 199 | 16.0 | 36.0 | 0.00 | 0.01 | 0.00 | 67 | 1002.0 |
| 20260505074008 | 65 | 193 | 14.0 | 28.0 | 0.00 | 0.01 | 0.00 | 67 | 1001.8 |
| 20260505073511 | 64 | 247 | 12.0 | 29.0 | 0.00 | 0.01 | 0.00 | 68 | 1001.9 |
| 20260505073006 | 64 | 201 | 16.0 | 30.0 | 0.00 | 0.01 | 0.00 | 68 | 1001.8 |
| 20260505072505 | 64 | 170 | 10.0 | 30.0 | 0.00 | 0.01 | 0.00 | 68 | 1001.9 |
| 20260505072005 | 64 | 201 | 12.0 | 24.0 | 0.00 | 0.01 | 0.00 | 68 | 1001.8 |
| 20260505071515 | 64 | 191 | 8.0 | 24.0 | 0.00 | 0.01 | 0.00 | 68 | 1001.6 |
| 20260505071005 | 64 | 198 | 7.0 | 23.0 | 0.00 | 0.01 | 0.00 | 68 | 1001.7 |
| 20260505070507 | 65 | 218 | 14.0 | 26.0 | 0.00 | 0.01 | 0.00 | 68 | 1001.7 |
| 20260505070003 | 65 | 185 | 13.0 | 26.0 | 0.00 | 0.01 | 0.00 | 67 | 1001.8 |
| 20260505065502 | 65 | 204 | 12.0 | 24.0 | 0.00 | 0.01 | 0.00 | 66 | 1002.0 |
| 20260505065004 | 65 | 203 | 12.0 | 22.0 | 0.00 | 0.01 | 0.00 | 66 | 1002.1 |
| 20260505064504 | 65 | 245 | 8.0 | 22.0 | 0.00 | 0.01 | 0.00 | 66 | 1002.0 |
| 20260505064002 | 65 | 169 | 11.0 | 26.0 | 0.00 | 0.01 | 0.00 | 66 | 1002.0 |
| 20260505063600 | 65 | 184 | 9.0 | 29.0 | 0.00 | 0.01 | 0.00 | 66 | 1002.0 |
| 20260505063059 | 65 | 226 | 12.0 | 29.0 | 0.00 | 0.01 | 0.00 | 66 | 1002.0 |
| 20260505062602 | 65 | 205 | 11.0 | 24.0 | 0.00 | 0.01 | 0.00 | 66 | 1002.1 |
| 20260505062100 | 65 | 173 | 9.0 | 21.0 | 0.00 | 0.01 | 0.00 | 66 | 1002.1 |
| 20260505061556 | 65 | 190 | 11.0 | 22.0 | 0.00 | 0.01 | 0.00 | 66 | 1002.3 |
| 20260505061056 | 65 | 203 | 10.0 | 23.0 | 0.00 | 0.01 | 0.00 | 66 | 1002.3 |
| 20260505060557 | 65 | 206 | 10.0 | 23.0 | 0.00 | 0.01 | 0.00 | 66 | 1002.3 |
| 20260505060056 | 65 | 179 | 7.0 | 32.0 | 0.00 | 0.01 | 0.00 | 66 | 1002.3 |
| 20260505055558 | 65 | 202 | 14.0 | 32.0 | 0.00 | 0.01 | 0.00 | 66 | 1002.4 |
| 20260505055055 | 65 | 201 | 9.0 | 26.0 | 0.00 | 0.01 | 0.00 | 66 | 1002.4 |
| 20260505054554 | 65 | 195 | 15.0 | 33.0 | 0.00 | 0.01 | 0.00 | 66 | 1002.6 |
| 20260505054055 | 65 | 224 | 15.0 | 29.0 | 0.00 | 0.01 | 0.00 | 66 | 1002.5 |
| 20260505053551 | 65 | 200 | 11.0 | 27.0 | 0.00 | 0.01 | 0.00 | 66 | 1002.6 |
| 20260505053152 | 65 | 247 | 12.0 | 25.0 | 0.00 | 0.01 | 0.00 | 66 | 1002.6 |
| 20260505052550 | 65 | 181 | 11.0 | 25.0 | 0.00 | 0.01 | 0.00 | 66 | 1002.7 |
| 20260505052049 | 65 | 173 | 11.0 | 25.0 | 0.00 | 0.01 | 0.00 | 67 | 1002.8 |
| 20260505051558 | 65 | 191 | 8.0 | 23.0 | 0.00 | 0.01 | 0.00 | 67 | 1002.7 |
| 20260505051048 | 65 | 197 | 11.0 | 22.0 | 0.00 | 0.01 | 0.00 | 67 | 1002.9 |
| 20260505050551 | 65 | 201 | 11.0 | 27.0 | 0.00 | 0.01 | 0.00 | 67 | 1002.8 |
| 20260505041540 | 64 | 175 | 10.0 | 23.0 | 0.00 | 0.01 | 0.00 | 67 | 1003.2 |
| 20260505041039 | 64 | 159 | 10.0 | 23.0 | 0.00 | 0.01 | 0.00 | 67 | 1003.2 |
| 20260505040538 | 64 | 173 | 11.0 | 23.0 | 0.00 | 0.01 | 0.00 | 67 | 1003.2 |
| 20260505040038 | 64 | 236 | 9.0 | 21.0 | 0.00 | 0.01 | 0.00 | 67 | 1003.2 |
| 20260505035537 | 64 | 176 | 8.0 | 21.0 | 0.00 | 0.01 | 0.01 | 67 | 1003.3 |
| 20260505035036 | 64 | 201 | 9.0 | 21.0 | 0.00 | 0.01 | 0.01 | 67 | 1003.4 |
| 20260505034536 | 64 | 201 | 12.0 | 21.0 | 0.00 | 0.01 | 0.01 | 67 | 1003.5 |
| 20260505034037 | 64 | 205 | 9.0 | 27.0 | 0.00 | 0.01 | 0.01 | 67 | 1003.4 |
| 20260505033536 | 64 | 152 | 14.0 | 28.0 | 0.00 | 0.01 | 0.01 | 66 | 1003.3 |
| 20260505033038 | 64 | 125 | 14.0 | 28.0 | 0.00 | 0.01 | 0.01 | 66 | 1003.5 |
| 20260505032535 | 64 | 168 | 10.0 | 23.0 | 0.00 | 0.01 | 0.01 | 66 | 1003.5 |
| 20260505032038 | 65 | 161 | 8.0 | 23.0 | 0.00 | 0.01 | 0.01 | 66 | 1003.5 |
| 20260505031534 | 65 | 206 | 9.0 | 25.0 | 0.00 | 0.01 | 0.01 | 66 | 1003.6 |
| 20260505031035 | 65 | 173 | 9.0 | 25.0 | 0.00 | 0.01 | 0.01 | 66 | 1003.5 |